Regional Weather Roundup
Issued by NWS

Home | Current Version | Previous Version | Graphics & Text | Print | Product List | Glossary On
Versions: 1 2 3 4 5 6 7 8 9 10 11 12 13 14 15 16 17 18 19 20 21 22 23 24 25 26 27 28 29 30 31 32 33 34 35 36 37 38 39 40 41 42 43 44 45 46 47 48 49 50
285
ASUS43 KFSD 272002
RWRSD

WEATHER ROUNDUP FOR SOUTH DAKOTA
NATIONAL WEATHER SERVICE SIOUX FALLS SD
300 PM CDT FRI MAY 27 2016

NOTE: "FAIR" INDICATES FEW OR NO CLOUDS BELOW 12,000 FEET WITH NO
SIGNIFICANT WEATHER AND/OR OBSTRUCTIONS TO VISIBILITY.


SDZ001>005-009-010-012>017-272100-
NORTHWEST AND NORTH CENTRAL SOUTH DAKOTA

CITY           SKY/WX    TMP DP  RH WIND       PRES   REMARKS
BUFFALO          N/A     61  48  62 N7        29.79S
FAITH            N/A     67  46  47 SE9       29.83S
MOBRIDGE       CLOUDY    72  46  39 CALM      29.79F
$$

SDZ012>016-024>037-041>051-057-063-072>074-272100-
SOUTHWEST AND SOUTH CENTRAL SOUTH DAKOTA

CITY           SKY/WX    TMP DP  RH WIND       PRES   REMARKS
RAPID CTY ARPT CLOUDY    63  46  54 N14       29.86S
PIERRE         CLOUDY    69  53  56 NE6       29.79F
CUSTER         CLOUDY    55  42  61 E13       29.91F
ELLSWORTH AFB  PTSUNNY   65  46  50 N8        29.85S
PHILIP         CLOUDY    65  49  56 E5        29.82F
PINE RIDGE     CLOUDY    59  47  64 E6        29.86F
WINNER         MOCLDY    69  51  52 NE18      29.81S
$$

SDZ004>011-016>023-039-040-272100-
NORTHEAST SOUTH DAKOTA

CITY           SKY/WX    TMP DP  RH WIND       PRES   REMARKS
ABERDEEN       CLOUDY    62  58  86 S14       29.80R THUNDER
WATERTOWN      CLOUDY    62  58  86 SW6       29.80R
BROOKINGS      CLOUDY    67  59  75 NW12      29.79S
SISSETON         N/A     69  55  60 SW12      29.76S
$$

SDZ017-020-022-023-036>040-048>070-272100-
SOUTHEAST SOUTH DAKOTA

CITY           SKY/WX    TMP DP  RH WIND       PRES   REMARKS
SIOUX FALLS    CLOUDY    71  57  61 VRB3      29.77R
HURON          CLOUDY    69  58  67 NE10      29.78F
MITCHELL       CLOUDY    68  60  75 NW8       29.79R
YANKTON        MOSUNNY   72  61  68 NW8       29.74F
$$

ABBREVIATIONS USED IN REMARKS
   TC - TEMPERATURE IN CELSIUS
  WCI - WIND CHILL INDEX
   HX - HEAT INDEX
  VSB - VISIBILITY





USA.gov is the U.S. government's official web portal to all federal, state and local government web resources and services.